    Orbital elements:
    2015 BL311                                          PHA, Earth MOID = 0.0098 AU
    Epoch 2014 Dec. 9.0 TT = JDT 2457000.5                  MPC
    M   1.26963              (2000.0)            P               Q
    n   0.27240284     Peri.  134.71359     +0.99804010     -0.05944678
    a   2.3568302      Node   228.70474     +0.04749730     +0.92298618
    e   0.8432908      Incl.    1.49073     +0.04074265     +0.38021388
    P   3.62           H   21.0           G   0.15           U   6
    Residuals in seconds of arc
    150121 Y00  0.2-  0.2+    150121 C23  0.0   0.4-    150122 O75  0.2-  0.0
    150121 Y00  0.4-  0.3+    150121 C23  0.6-  0.0     150122 O75  0.0   0.4+
    150121 Y00  0.1+  0.3+    150121 033  0.0   0.7-    150122 C77  0.1-  0.1+
    150121 F51  0.1+  0.0     150121 033  0.4-  0.1+    150122 958  0.4-  0.6+
    150121 F51  0.2+  0.2-    150121 033  0.3-  0.7+    150122 C77  0.4-  0.2-
    150121 F51  0.1+  0.2+    150122 I39  0.8-  1.2+    150122 C77  0.4-  0.2+
    150121 F51  0.0   0.2-    150122 I39  1.6+  1.9+    150122 958  0.0   0.6+
    150121 F51  0.4+  0.0     150122 I39  0.3-  0.8+    150122 J08  0.2-  0.5+
    150121 F51  0.3+  0.1+    150122 W88  0.1-  0.1+    150122 958  0.1+  0.6+
    150121 F51  0.2+  0.1+    150122 W88  0.2-  0.4-    150122 J08  0.7+  0.6+
    150121 474  0.3+  0.1+    150122 W88  0.0   0.3-    150122 J08  0.3+  0.6+
    150121 474  0.3-  0.5-    150122 850  0.0   0.1+    150122 J95  0.2+  0.2-
    150121 474  0.3-  0.2-    150122 850  0.0   0.2-    150122 J95  0.1+  0.0
    150121 474  0.0   0.3-    150122 850  0.1-  0.1-    150122 J95  0.0   0.1-
    150121 474  0.2-  0.4-    150122 850  0.1-  0.1-    150123 H36  0.1+  0.1+
    150121 E23  0.1+  0.1-    150122 850  0.1+  0.3-    150123 H36  0.1+  0.2+
    150121 E23  0.0   0.1-    150122 850  0.1+  0.1+    150123 H36  0.1+  0.1+
    150121 E23  0.1-  0.3-    150122 474  0.1+  0.4-    150123 H36  0.1+  0.1+
    150121 033  0.5-  0.3+    150122 474  0.0   0.3-    150123 474  0.0   0.0
    150121 033  0.4-  0.1+    150122 474  0.1+  0.4-    150123 474  0.0   0.1-
    150121 C23  0.2+  0.5-    150122 C94  0.2+  0.0     150123 474  0.2+  0.3-
    150121 C23  1.0-  0.3+    150122 C94  0.3-  0.5-    150123 474  0.1-  0.1-
    150121 C23  0.1-  0.9-    150122 O75  0.3-  0.8-    150123 474  0.1+  0.0
    150121 C23  0.5-  0.6-    150122 O75  0.2+  0.4-
    
    Ephemeris:
    2015 BL311               a,e,i = 2.36, 0.84, 1                   q = 0.3693
    Date    TT    R. A. (2000) Decl.     Delta      r     Elong.  Phase     V
    2014 12 24    18 56 25.9 -24 09 51   0.3912  0.6044    11.1   161.8    29.5
    ...
    2015 01 08    18 48 50.1 -32 14 48   0.1204  0.8656    11.4   167.0    30.5
    ...
    2015 01 16    07 55 04.9 -37 33 24   0.02856 0.9988   121.4    57.2    15.3
    ...
    2015 01 22    07 11 18.8 +08 55 37   0.1162  1.0948   161.2    16.8    17.4
    2015 01 23    07 10 09.0 +10 26 12   0.1326  1.1105   161.1    16.7    17.7
    2015 01 24    07 09 16.7 +11 37 09   0.1491  1.1261   160.6    16.9    18.0
    ...
    2015 01 30    07 07 14.0 +15 27 05   0.2503  1.2176   155.8    19.4    19.4
    ...
    2015 02 07    07 08 17.8 +17 28 20   0.3910  1.3347   148.3    22.8    20.7
    ...
    2015 02 22    07 15 33.5 +18 53 10   0.6737  1.5406   134.9    27.0    22.3
    
    A. U. Tomatic                (C) Copyright 2015 MPC           M.P.E.C. 2015-B114
    

    Read MPEC 2015-B113 Read MPEC 2015-B115


    MPEC number:

    Enter an MPEC number in one of the following forms:

    • 1997-B01 (the full form)
    • J97B01 (the packed version of the full form)
    • B01 (the abbreviated form)